Wind_Speed
28 26 29 29 31 37 44 46 48 46 45 47 47 49 46 40 38 36 35 35 38 36 39 37 32 32 36 37 31 27 26 29 22 21 25 27 23 25 26 24 23 16 11
26 28 33 33 34 33 32 36 45 47 46 45 49 45 39 41 41 41 38 38 40 39 36 33 32 35 37 33 30 26 26 26 23 24 27 29 23 22 23 22 17 12 8
21 23 33 37 36 37 37 32 32 43 47 46 43 41 40 39 38 40 41 37 38 34 30 29 31 35 36 32 27 24 25 24 25 27 29 28 21 21 19 16 14 12 13
26 26 30 33 37 40 39 37 33 32 43 46 46 40 37 34 32 35 34 30 31 30 27 27 32 34 33 31 23 24 25 25 25 26 24 21 18 18 18 12 9 8 14
45 32 31 36 42 46 38 40 36 34 38 44 43 41 35 31 32 30 26 25 26 28 27 31 32 32 34 30 24 26 23 23 25 24 19 17 16 14 14 11 9 6 8
50 43 41 40 45 48 32 31 37 36 35 42 43 41 37 32 28 27 23 24 25 27 30 30 32 33 35 27 25 20 23 22 21 17 18 15 16 13 12 12 9 7 6
48 52 45 45 35 41 30 27 33 36 33 42 44 43 40 34 29 28 28 29 30 29 30 30 33 33 29 23 20 21 22 19 18 17 18 16 13 12 11 10 11 10 5
41 50 47 45 30 29 29 30 29 36 34 42 46 47 40 37 33 29 30 31 28 31 32 31 31 30 23 22 22 22 18 18 18 17 16 16 13 12 12 13 12 11 9
42 48 53 59 44 39 33 33 28 35 34 43 46 48 39 38 32 30 30 32 30 31 32 31 30 24 24 22 23 18 18 17 16 15 16 14 12 12 11 9 10 12 12
39 40 42 34 36 35 32 34 28 37 37 42 44 46 40 33 30 31 29 29 29 31 32 31 26 25 24 24 19 17 19 15 14 15 15 13 13 11 9 7 7 11 12
37 37 45 42 38 37 37 32 35 40 38 38 43 39 36 34 33 32 28 30 32 34 34 25 24 24 21 19 18 18 16 15 15 17 14 14 12 9 9 10 8 8 8
38 38 38 40 39 39 40 30 37 39 35 36 38 38 37 34 33 28 29 31 32 24 20 21 20 18 18 19 18 17 18 19 18 17 16 15 11 8 8 8 8 8 6
32 36 39 37 38 40 35 28 31 38 36 40 39 40 35 33 28 29 28 28 22 20 19 14 14 16 17 17 19 20 18 17 16 17 15 13 7 5 7 8 8 8 6
37 37 38 40 44 43 34 33 37 39 40 40 41 37 33 30 28 28 29 25 21 19 14 12 14 14 13 12 11 13 15 15 18 15 11 7 6 6 6 7 7 8 8
30 35 40 38 35 34 33 37 40 37 41 41 36 33 28 25 26 26 27 23 20 16 15 14 11 10 8 4 9 9 11 15 12 13 8 8 9 7 6 7 7 7 8
25 31 27 26 25 29 36 41 39 42 40 34 29 24 21 22 24 22 22 19 16 16 16 11 9 11 10 9 9 10 9 11 12 8 8 7 8 7 6 5 6 8 10
26 30 26 24 26 33 40 45 45 38 35 30 24 22 26 22 19 20 20 19 20 18 13 12 11 11 13 13 12 11 10 10 9 8 6 7 8 7 6 6 6 6 8
28 28 30 27 36 35 42 40 38 37 32 30 24 21 16 18 21 22 21 21 19 15 12 13 12 11 11 12 11 12 11 10 8 7 6 7 8 6 5 5 4 6 4
25 31 37 35 36 34 39 33 26 26 26 23 22 21 24 24 23 23 21 19 19 15 13 15 15 13 13 11 10 9 11 10 9 8 8 8 6 7 6 5 3 3 3
33 34 32 35 32 30 28 23 26 24 23 17 18 21 23 21 20 18 18 18 18 17 17 17 17 14 13 12 10 10 10 10 10 9 9 8 5 5 5 3 3 3 4
26 28 27 27 24 22 24 22 26 19 17 20 21 21 19 17 17 16 17 17 17 17 17 18 17 16 14 13 10 9 8 7 8 6 4 5 7 6 5 6 4 4 4
27 25 20 18 20 19 25 26 20 21 22 21 20 18 16 16 15 14 16 16 22 21 23 19 18 18 14 12 12 11 10 8 8 9 9 11 10 7 4 5 5 4 3
33 25 23 24 21 20 19 21 24 23 21 19 18 17 17 16 16 18 20 20 22 20 15 17 17 14 12 11 10 11 12 10 13 10 9 8 6 8 5 1 0 1 4
24 22 21 20 20 23 25 24 21 19 17 15 14 15 16 20 20 18 18 20 19 18 15 15 14 12 12 11 18 15 13 12 12 9 9 6 5 4 4 4 4 6 8
19 19 23 24 26 24 21 17 17 16 16 15 16 18 22 23 19 21 22 21 20 17 17 15 16 16 17 22 15 14 12 13 13 11 8 5 4 6 8 8 10 11 15
15 19 20 21 21 21 17 15 16 17 20 24 23 24 25 25 24 23 23 23 21 21 18 16 19 18 18 18 16 14 13 11 10 8 5 5 6 9 12 14 17 19 20
Wind_Direction
284 276 269 264 260 257 251 247 240 240 240 239 240 246 248 253 256 259 262 268 276 279 285 289 289 283 292 301 300 287 290 298 293 280 281 295 294 296 303 304 297 293 265
268 275 278 272 266 264 262 260 249 244 238 237 236 241 247 253 254 259 262 267 272 277 281 285 283 287 297 298 293 285 291 287 283 282 293 297 296 296 298 301 297 280 257
271 261 268 273 267 263 263 263 261 250 243 237 237 240 245 250 253 256 259 265 268 269 275 276 283 291 296 295 284 281 287 279 278 286 289 289 288 294 299 294 300 279 232
250 268 265 261 265 262 258 260 263 260 245 239 238 240 248 249 253 254 252 252 259 268 269 279 287 289 290 290 275 283 280 275 279 286 284 283 286 291 296 280 302 296 229
279 244 249 261 262 268 259 250 259 261 251 238 236 238 238 241 244 247 245 246 255 264 270 282 282 285 288 285 278 279 273 275 282 279 283 286 297 292 281 262 278 280 224
273 252 240 242 259 264 247 252 247 256 256 235 230 229 229 233 238 245 243 249 257 264 271 274 280 281 285 279 276 261 269 274 270 268 276 286 287 288 286 257 260 254 249
265 247 240 241 247 254 241 245 254 249 251 233 224 222 226 231 235 247 254 258 263 264 267 273 278 281 277 265 257 272 274 264 259 263 273 279 281 275 277 266 261 252 266
252 234 231 230 229 239 243 241 243 249 244 232 220 219 226 230 233 241 255 261 262 259 267 275 275 277 264 254 263 272 264 254 260 265 265 270 271 259 264 266 258 249 243
258 236 240 232 233 238 237 239 234 241 237 231 218 218 221 227 231 242 253 257 252 261 269 268 271 255 255 255 269 258 255 257 262 258 264 265 261 263 254 249 263 237 246
249 239 229 232 226 232 237 238 236 231 228 224 214 215 221 225 229 239 239 243 254 259 259 268 254 250 254 262 253 249 258 260 254 255 259 255 251 264 220 224 226 228 243
246 234 230 239 230 234 235 235 216 225 221 215 210 213 217 220 226 226 235 248 249 253 259 240 242 250 249 245 251 253 254 250 240 247 252 254 247 247 226 223 249 234 241
244 241 233 232 230 229 229 233 224 228 206 205 203 208 211 214 213 221 235 246 254 245 236 232 232 232 242 247 251 252 250 244 243 243 259 237 235 232 231 230 230 222 251
238 234 238 235 235 234 230 231 215 199 199 197 200 205 205 205 211 226 238 240 233 227 248 233 221 233 245 252 254 251 242 235 243 227 215 219 230 241 238 233 228 229 244
233 234 228 237 237 236 220 199 200 196 193 194 196 197 197 207 217 228 233 227 223 234 228 220 232 241 252 257 236 221 221 230 234 217 220 206 221 235 229 228 231 234 240
229 232 233 229 217 200 198 198 192 191 190 189 192 195 203 217 228 227 212 218 229 214 215 227 234 227 218 204 194 191 206 217 223 206 206 217 224 234 227 226 234 247 261
212 200 192 186 190 197 192 190 189 187 183 187 195 204 214 206 200 201 213 215 196 205 213 211 214 213 210 198 189 180 167 178 171 187 226 239 229 232 236 242 248 258 262
194 173 176 190 183 191 190 202 185 164 177 182 192 203 198 198 203 205 195 185 196 202 207 214 212 204 206 203 200 201 193 188 199 212 226 223 211 215 236 254 269 286 287
176 177 180 174 194 151 175 157 170 172 169 175 186 185 186 182 179 179 186 192 195 198 204 204 202 203 205 200 207 200 203 202 210 226 228 210 212 228 242 253 255 293 297
189 167 151 173 150 154 158 165 173 175 175 174 175 177 173 174 178 186 190 193 200 208 206 203 197 202 204 204 207 204 209 219 223 221 217 217 222 238 239 239 244 284 284
165 150 153 147 151 157 164 168 166 169 171 173 175 178 179 181 188 192 192 198 207 213 212 210 206 202 204 198 203 211 215 220 219 207 203 216 243 268 241 262 236 281 280
132 137 144 147 158 167 163 166 165 177 181 168 171 179 186 194 198 199 201 206 205 202 197 190 191 200 194 189 196 196 197 186 171 172 229 218 224 181 172 199 191 172 128
135 134 136 152 174 175 181 171 178 180 171 173 179 182 186 193 202 198 188 184 181 178 186 193 186 193 190 199 191 180 169 174 188 177 176 166 164 170 165 154 161 188 241
142 141 146 161 161 166 171 166 163 165 171 178 186 191 190 189 189 184 180 169 174 170 183 189 177 179 189 187 181 178 170 162 157 161 162 161 158 148 159 215 332 305 295
158 157 159 158 149 151 160 160 163 168 175 182 182 188 183 163 161 162 167 167 162 161 161 168 181 189 168 157 143 137 147 162 161 149 143 150 163 175 192 224 267 289 300
153 158 161 157 157 155 148 152 158 164 170 173 168 164 160 157 151 147 145 147 154 156 154 160 153 144 159 143 146 152 162 152 161 164 165 179 220 252 270 274 287 291 296
145 150 154 155 156 155 154 153 156 157 152 144 142 141 144 148 151 148 144 148 152 151 156 155 149 153 148 155 155 147 148 158 173 187 207 250 273 287 293 292 288 288 300
Height
3032 3033 3034 3037 3039 3042 3045 3050 3055 3060 3065 3067 3071 3076 3079 3081 3085 3088 3091 3093 3093 3095 3097 3096 3098 3100 3099 3095 3094 3094 3093 3092 3092 3090 3090 3090 3089 3086 3085 3082 3080 3077 3078
3028 3027 3027 3029 3031 3032 3035 3038 3043 3048 3056 3059 3064 3068 3070 3073 3077 3081 3083 3085 3086 3089 3090 3090 3090 3092 3092 3089 3088 3088 3088 3088 3088 3085 3084 3084 3083 3083 3080 3078 3075 3074 3076
3017 3019 3020 3019 3021 3023 3024 3028 3032 3037 3041 3048 3054 3059 3063 3068 3072 3073 3075 3078 3077 3081 3082 3084 3085 3084 3084 3084 3083 3083 3083 3083 3082 3083 3081 3079 3080 3078 3077 3075 3072 3072 3072
3008 3011 3012 3012 3011 3013 3015 3017 3021 3025 3030 3036 3043 3050 3054 3058 3059 3061 3064 3070 3069 3071 3076 3077 3078 3077 3078 3078 3078 3078 3078 3078 3079 3079 3077 3076 3076 3074 3073 3072 3071 3069 3070
2997 2998 3000 3001 3000 2999 3005 3007 3010 3014 3019 3025 3032 3040 3044 3048 3049 3052 3057 3062 3064 3066 3068 3070 3071 3070 3072 3073 3072 3073 3074 3074 3074 3073 3073 3072 3071 3071 3070 3069 3069 3068 3069
2984 2985 2990 2989 2990 2991 2994 2996 3001 3005 3009 3015 3021 3029 3035 3038 3042 3044 3051 3054 3058 3061 3063 3065 3064 3065 3065 3067 3066 3068 3069 3069 3069 3069 3069 3069 3068 3068 3067 3067 3068 3068 3068
2966 2969 2976 2980 2980 2982 2984 2987 2991 2997 3001 3005 3011 3019 3025 3030 3036 3038 3043 3048 3052 3055 3056 3058 3059 3058 3059 3060 3062 3063 3064 3064 3064 3065 3065 3065 3065 3066 3065 3065 3066 3067 3068
2946 2952 2960 2963 2968 2971 2974 2978 2982 2988 2990 2996 3002 3010 3018 3023 3029 3033 3038 3042 3045 3048 3050 3052 3053 3052 3054 3055 3057 3058 3058 3059 3060 3061 3062 3062 3062 3063 3063 3064 3064 3065 3067
2933 2938 2942 2950 2955 2960 2963 2967 2971 2977 2981 2987 2993 3002 3010 3014 3023 3029 3033 3035 3039 3041 3043 3046 3045 3046 3048 3051 3052 3053 3054 3055 3056 3057 3058 3059 3059 3059 3060 3061 3062 3064 3065
2921 2926 2931 2939 2945 2948 2953 2957 2961 2966 2972 2979 2987 2995 3000 3010 3017 3023 3027 3029 3032 3035 3037 3039 3039 3041 3045 3046 3047 3049 3049 3051 3052 3054 3055 3056 3057 3057 3058 3059 3060 3063 3063
2911 2914 2921 2927 2932 2937 2942 2946 2951 2957 2963 2972 2980 2988 2997 3005 3011 3016 3020 3021 3026 3028 3029 3032 3035 3037 3039 3041 3043 3044 3045 3046 3048 3051 3052 3053 3055 3056 3057 3058 3059 3061 3062
2900 2904 2910 2915 2921 2926 2930 2936 2942 2950 2957 2966 2974 2982 2989 2998 3005 3008 3014 3017 3019 3020 3023 3028 3031 3033 3035 3036 3038 3041 3042 3043 3045 3047 3049 3051 3053 3054 3055 3057 3058 3059 3060
2889 2894 2899 2905 2910 2915 2922 2928 2937 2944 2951 2960 2967 2975 2986 2992 2997 3003 3009 3011 3013 3017 3020 3024 3027 3028 3030 3032 3033 3034 3037 3039 3042 3042 3041 3050 3051 3052 3054 3055 3057 3058 3059
2878 2883 2890 2896 2901 2908 2913 2921 2929 2937 2947 2954 2962 2971 2979 2987 2993 2998 3002 3006 3010 3014 3017 3020 3023 3025 3026 3027 3027 3029 3033 3036 3040 3041 3040 3045 3049 3050 3052 3054 3055 3056 3057
2868 2874 2880 2884 2890 2899 2908 2915 2925 2934 2942 2948 2958 2969 2977 2982 2987 2993 2998 3003 3007 3012 3015 3017 3020 3022 3024 3024 3026 3028 3030 3034 3037 3040 3042 3045 3047 3049 3051 3052 3053 3054 3055
2861 2866 2872 2880 2890 2899 2905 2914 2920 2929 2939 2950 2959 2966 2973 2978 2985 2991 2996 3000 3006 3009 3012 3015 3017 3020 3022 3024 3027 3029 3031 3033 3037 3040 3042 3043 3045 3047 3049 3050 3051 3052 3052
2860 2864 2873 2879 2889 2896 2904 2904 2898 2915 2939 2948 2956 2963 2970 2978 2984 2989 2994 2999 3003 3006 3010 3013 3016 3018 3021 3024 3027 3029 3031 3034 3036 3038 3040 3041 3043 3045 3047 3048 3049 3050 3050
2861 2867 2874 2878 2887 2881 2902 2907 2923 2932 2939 2945 2954 2962 2969 2976 2982 2987 2992 2996 3001 3005 3008 3011 3014 3017 3020 3023 3025 3027 3030 3033 3035 3037 3038 3040 3042 3044 3045 3046 3047 3048 3048
2864 2872 2870 2882 2884 2902 2913 2924 2930 2936 2941 2948 2955 2961 2968 2974 2980 2985 2989 2994 2999 3002 3005 3009 3013 3016 3019 3022 3024 3027 3029 3031 3034 3035 3037 3039 3041 3043 3044 3045 3046 3047 3047
2850 2870 2884 2895 2903 2910 2916 2924 2932 2937 2944 2950 2956 2963 2969 2974 2979 2984 2989 2993 2996 2999 3003 3007 3011 3014 3017 3020 3023 3026 3028 3030 3032 3035 3037 3039 3040 3041 3042 3043 3044 3045 3046
2881 2888 2894 2900 2906 2913 2920 2927 2933 2939 2945 2950 2957 2963 2968 2973 2977 2982 2986 2990 2994 2998 3002 3005 3009 3013 3016 3019 3022 3025 3027 3029 3032 3034 3035 3037 3039 3040 3041 3042 3043 3044 3045
2889 2893 2898 2903 2909 2916 2923 2929 2935 2941 2947 2953 2958 2963 2968 2971 2975 2979 2984 2988 2992 2995 2999 3003 3008 3012 3016 3019 3022 3024 3027 3029 3031 3033 3034 3036 3037 3039 3040 3042 3042 3043 3044
2898 2902 2906 2911 2916 2922 2928 2935 2941 2945 2950 2954 2959 2963 2966 2970 2974 2978 2983 2987 2991 2997 3000 3005 3010 3013 3016 3019 3022 3024 3026 3028 3030 3033 3035 3037 3038 3040 3041 3042 3042 3043 3042
2907 2911 2915 2918 2923 2928 2934 2939 2943 2947 2952 2956 2960 2963 2967 2971 2976 2980 2984 2989 2994 2999 3003 3007 3010 3013 3016 3019 3022 3025 3027 3030 3032 3034 3036 3037 3038 3039 3039 3039 3040 3040 3040
2914 2918 2921 2927 2931 2935 2939 2943 2947 2950 2954 2957 2961 2965 2969 2974 2979 2982 2987 2991 2996 3001 3004 3007 3011 3014 3016 3020 3023 3025 3027 3029 3031 3034 3035 3036 3036 3037 3037 3037 3037 3037 3036
2920 2923 2928 2932 2936 2941 2944 2947 2950 2953 2956 2960 2964 2968 2972 2976 2981 2986 2990 2994 2998 3002 3005 3008 3011 3015 3018 3021 3023 3026 3028 3030 3031 3033 3034 3035 3035 3035 3034 3034 3033 3032 3031